Simultaneous Nadir Overpasses (SNOs) Predictions

Prediction of SNOs between AQUA and NPP Satellite Orbit:

Table of predicted SNOs for the next 14.0 days since TLE Epoch: 8/31/2012
Index Date (AQUA) Time (AQUA) Lat,Lon (AQUA) SZA (AQUA ) Date (NPP) Time (NPP) Lat,Lon (NPP) SZA (NPP ) Distance(km) Time Diff (sec)
1 09/02/2012 07:10:41 76.73, -46.43 88.78 09/02/2012 07:10:06 76.72, -46.47 88.82 1.06 35
2 09/02/2012 07:59:54 -77.41, 123.75 92.02 09/02/2012 08:00:36 -77.40, 123.65 92.04 2.63 42
3 09/04/2012 23:27:01 77.08, 70.73 89.29 09/04/2012 23:26:52 77.08, 70.75 89.29 0.69 9
4 09/05/2012 00:16:15 -77.70,-119.15 91.46 09/05/2012 00:17:23 -77.70,-119.18 91.51 0.71 68
5 09/07/2012 14:54:14 -76.49, 16.89 89.10 09/07/2012 14:53:14 -76.50, 16.90 89.06 0.56 60
6 09/07/2012 15:43:24 77.22,-172.86 90.06 09/07/2012 15:43:42 77.21,-172.93 90.06 1.91 18
7 09/10/2012 07:10:35 -76.76, 133.69 88.47 09/10/2012 07:10:02 -76.76, 133.67 88.44 0.47 33
8 09/10/2012 07:59:46 77.43, -56.15 90.75 09/10/2012 08:00:31 77.42, -56.25 90.74 2.79 45
9 09/12/2012 23:26:54 -77.10,-109.20 87.91 09/12/2012 23:26:48 -77.10,-109.19 87.91 0.30 6




NCC Satellite Simultaneous Nadir Overpasses (SNOs) Prediction Service
